When you browse on this site, cookies collect data to enhance your experience and personalize the content and advertising you see.
Visit our Privacy Policy to learn more. By continuing to use the site, you agree to this use of cookies and data.
  • In Hungary
  • List of Countries
  • For 7 days
  • Water Temperature
  • Weather Map
  • News
  • Weather Widgets
  • user-avatar
    Login

    Hourly Weather Gaj

    Today, 22 September, Sunday

    Time Temperature Precipitation Wind Pressure Humidity
    00:00 +11°C° 0 mm 4 mps 752 mmHg 88%
    01:00 +10°C° 0 mm 3 mps 752 mmHg 91%
    02:00 +9°C° 0 mm 3 mps 752 mmHg 95%
    03:00 +9°C° 0 mm 3 mps 752 mmHg 95%
    04:00 +8°C° 0 mm 3 mps 752 mmHg 96%
    05:00 +8°C° 0 mm 2 mps 752 mmHg 96%
    06:00 +9°C° 0 mm 3 mps 752 mmHg 94%
    07:00 +9°C° 0 mm 3 mps 752 mmHg 91%
    08:00 +10°C° 0 mm 3 mps 752 mmHg 89%
    09:00 +12°C° 0 mm 3 mps 752 mmHg 81%
    10:00 +14°C° 0 mm 3 mps 752 mmHg 74%
    11:00 +17°C° 0 mm 4 mps 751 mmHg 66%
    12:00 +18°C° 0 mm 4 mps 751 mmHg 63%
    13:00 +19°C° 0 mm 4 mps 751 mmHg 60%
    14:00 +20°C° 0 mm 4 mps 750 mmHg 57%
    15:00 +20°C° 0 mm 4 mps 750 mmHg 58%
    16:00 +20°C° 0 mm 3 mps 750 mmHg 60%
    17:00 +20°C° 0 mm 2 mps 749 mmHg 62%
    18:00 +18°C° 0 mm 2 mps 749 mmHg 68%
    19:00 +16°C° 0 mm 2 mps 749 mmHg 74%
    20:00 +14°C° 0 mm 1 mps 749 mmHg 80%
    21:00 +14°C° 0 mm 2 mps 750 mmHg 83%
    22:00 +13°C° 0 mm 2 mps 750 mmHg 86%
    23:00 +12°C° 0 mm 2 mps 750 mmHg 88%

    Tomorrow, 23 September, Monday

    Time Temperature Precipitation Wind Pressure Humidity
    00:00 +12°C° 0 mm 2 mps 750 mmHg 90%
    01:00 +11°C° 0 mm 3 mps 751 mmHg 92%
    02:00 +10°C° 0 mm 3 mps 751 mmHg 95%
    03:00 +10°C° 0 mm 4 mps 751 mmHg 92%
    04:00 +10°C° 0 mm 4 mps 751 mmHg 89%
    05:00 +10°C° 0 mm 4 mps 751 mmHg 87%
    06:00 +9°C° 0 mm 5 mps 751 mmHg 82%
    07:00 +9°C° 0 mm 5 mps 752 mmHg 78%
    08:00 +9°C° 0 mm 5 mps 752 mmHg 74%
    09:00 +10°C° 0 mm 5 mps 752 mmHg 71%
    10:00 +10°C° 0 mm 5 mps 752 mmHg 67%
    11:00 +12°C° 0 mm 5 mps 753 mmHg 64%
    12:00 +12°C° 0 mm 5 mps 752 mmHg 62%
    13:00 +13°C° 0 mm 5 mps 752 mmHg 61%
    14:00 +13°C° 0 mm 5 mps 752 mmHg 59%
    15:00 +13°C° 0 mm 4 mps 752 mmHg 60%
    16:00 +13°C° 0 mm 4 mps 752 mmHg 60%
    17:00 +13°C° 0 mm 4 mps 752 mmHg 61%
    18:00 +12°C° 0 mm 4 mps 752 mmHg 64%
    19:00 +10°C° 0 mm 4 mps 752 mmHg 67%
    20:00 +8°C° 0 mm 4 mps 752 mmHg 70%
    21:00 +8°C° 0 mm 3 mps 752 mmHg 69%
    22:00 +7°C° 0 mm 3 mps 753 mmHg 68%
    23:00 +7°C° 0 mm 3 mps 753 mmHg 67%

    Day after tomorrow, 24 September, Tuesday

    Time Temperature Precipitation Wind Pressure Humidity
    00:00 +5°C° 0 mm 3 mps 752 mmHg 68%
    01:00 +5°C° 0 mm 3 mps 752 mmHg 68%
    02:00 +5°C° 0 mm 3 mps 752 mmHg 68%
    03:00 +4°C° 0 mm 3 mps 752 mmHg 70%
    04:00 +4°C° 0 mm 3 mps 752 mmHg 72%
    05:00 +4°C° 0 mm 3 mps 751 mmHg 74%
    06:00 +5°C° 0 mm 3 mps 751 mmHg 72%
    07:00 +5°C° 0 mm 3 mps 751 mmHg 70%
    08:00 +7°C° 0 mm 3 mps 751 mmHg 68%
    09:00 +9°C° 0 mm 3 mps 751 mmHg 64%
    10:00 +12°C° 0 mm 3 mps 751 mmHg 60%
    11:00 +14°C° 0 mm 3 mps 751 mmHg 56%
    12:00 +16°C° 0 mm 3 mps 750 mmHg 54%
    13:00 +17°C° 0 mm 3 mps 750 mmHg 52%
    14:00 +18°C° 0 mm 3 mps 749 mmHg 50%
    15:00 +17°C° 0 mm 3 mps 749 mmHg 52%
    16:00 +17°C° 0 mm 3 mps 749 mmHg 54%
    17:00 +17°C° 0 mm 2 mps 749 mmHg 56%
    18:00 +14°C° 0 mm 3 mps 748 mmHg 61%
    19:00 +12°C° 0 mm 3 mps 748 mmHg 66%
    20:00 +10°C° 0 mm 3 mps 748 mmHg 70%
    21:00 +10°C° 0 mm 3 mps 748 mmHg 72%
    22:00 +9°C° 0 mm 3 mps 748 mmHg 75%
    23:00 +9°C° 0 mm 3 mps 748 mmHg 77%

    25 September, Wednesday

    Time Temperature Precipitation Wind Pressure Humidity
    00:00 +9°C° 0 mm 3 mps 748 mmHg 79%
    01:00 +8°C° 0 mm 3 mps 748 mmHg 80%
    02:00 +8°C° 0 mm 3 mps 747 mmHg 82%
    03:00 +8°C° 0 mm 3 mps 747 mmHg 81%
    04:00 +7°C° 0 mm 4 mps 747 mmHg 80%
    05:00 +7°C° 0 mm 4 mps 746 mmHg 79%
    06:00 +8°C° 0 mm 4 mps 746 mmHg 76%
    07:00 +10°C° 0 mm 4 mps 746 mmHg 73%
    08:00 +10°C° 0 mm 4 mps 745 mmHg 71%
    09:00 +12°C° 0 mm 4 mps 745 mmHg 67%
    10:00 +13°C° 0 mm 4 mps 745 mmHg 64%
    11:00 +15°C° 0 mm 4 mps 745 mmHg 61%
    12:00 +17°C° 0 mm 4 mps 744 mmHg 60%
    13:00 +18°C° 0 mm 4 mps 744 mmHg 60%
    14:00 +18°C° 0 mm 4 mps 744 mmHg 60%
    15:00 +17°C° 0.2 mm 4 mps 743 mmHg 69%
    16:00 +16°C° 0.2 mm 3 mps 743 mmHg 78%
    17:00 +13°C° 0.2 mm 3 mps 743 mmHg 87%
    18:00 +13°C° 0.2 mm 3 mps 743 mmHg 89%
    19:00 +13°C° 0.2 mm 3 mps 743 mmHg 92%
    20:00 +12°C° 0.2 mm 3 mps 743 mmHg 94%
    21:00 +12°C° 0 mm 3 mps 743 mmHg 95%
    22:00 +12°C° 0 mm 3 mps 743 mmHg 95%
    23:00 +12°C° 0 mm 3 mps 743 mmHg 96%

    26 September, Thursday

    Time Temperature Precipitation Wind Pressure Humidity
    00:00 +12°C° 0.1 mm 3 mps 743 mmHg 95%
    01:00 +13°C° 0.1 mm 3 mps 743 mmHg 95%
    02:00 +13°C° 0.1 mm 3 mps 742 mmHg 94%
    03:00 +13°C° 0.1 mm 3 mps 743 mmHg 95%
    04:00 +12°C° 0.1 mm 3 mps 743 mmHg 95%
    05:00 +12°C° 0.1 mm 3 mps 743 mmHg 96%
    06:00 +13°C° 0.1 mm 3 mps 743 mmHg 95%
    07:00 +13°C° 0.1 mm 3 mps 743 mmHg 94%
    08:00 +13°C° 0.1 mm 3 mps 743 mmHg 93%
    09:00 +13°C° 0 mm 4 mps 744 mmHg 91%
    10:00 +14°C° 0 mm 4 mps 744 mmHg 90%
    11:00 +14°C° 0 mm 4 mps 744 mmHg 88%
    12:00 +15°C° 0.2 mm 4 mps 744 mmHg 86%
    13:00 +15°C° 0.2 mm 4 mps 744 mmHg 83%
    14:00 +17°C° 0.2 mm 4 mps 744 mmHg 81%
    15:00 +15°C° 0.2 mm 4 mps 745 mmHg 82%
    16:00 +15°C° 0.2 mm 4 mps 745 mmHg 82%
    17:00 +16°C° 0.2 mm 3 mps 745 mmHg 83%
    18:00 +14°C° 0.1 mm 3 mps 745 mmHg 86%
    19:00 +14°C° 0.1 mm 2 mps 746 mmHg 90%
    20:00 +13°C° 0.1 mm 1 mps 746 mmHg 94%
    21:00 +13°C° 0.3 mm 1 mps 746 mmHg 94%
    22:00 +13°C° 0.3 mm 1 mps 746 mmHg 95%
    23:00 +13°C° 0.3 mm 1 mps 747 mmHg 95%

    27 September, Friday

    Time Temperature Precipitation Wind Pressure Humidity
    00:00 +13°C° 0.2 mm 1 mps 747 mmHg 96%
    01:00 +12°C° 0.2 mm 1 mps 747 mmHg 96%
    02:00 +12°C° 0.2 mm 1 mps 747 mmHg 96%
    03:00 +12°C° 0.3 mm 1 mps 747 mmHg 96%
    04:00 +12°C° 0.3 mm 2 mps 747 mmHg 96%
    05:00 +10°C° 0.3 mm 2 mps 747 mmHg 96%
    06:00 +10°C° 0.2 mm 2 mps 747 mmHg 95%
    07:00 +10°C° 0.2 mm 2 mps 748 mmHg 94%
    08:00 +10°C° 0.2 mm 2 mps 748 mmHg 93%
    09:00 +10°C° 0.1 mm 2 mps 748 mmHg 91%
    10:00 +10°C° 0.1 mm 2 mps 748 mmHg 89%
    11:00 +10°C° 0.1 mm 2 mps 749 mmHg 87%
    12:00 +13°C° 0 mm 1 mps 749 mmHg 82%
    13:00 +14°C° 0 mm 1 mps 749 mmHg 77%
    14:00 +14°C° 0 mm 0 mps 749 mmHg 72%
    15:00 +14°C° 0 mm 0 mps 749 mmHg 72%
    16:00 +14°C° 0 mm 0 mps 749 mmHg 71%
    17:00 +14°C° 0 mm 0 mps 749 mmHg 71%
    18:00 +14°C° 0 mm 1 mps 749 mmHg 76%
    19:00 +13°C° 0 mm 2 mps 749 mmHg 80%
    20:00 +12°C° 0 mm 2 mps 749 mmHg 84%
    21:00 +11°C° 0 mm 3 mps 749 mmHg 85%
    22:00 +11°C° 0 mm 3 mps 750 mmHg 85%
    23:00 +11°C° 0 mm 3 mps 750 mmHg 85%
    Show more